Dickinson, ND

6:44 AM MDT on April 27, 2017 (GMT -0600)
Dickinson Municipal

Weather History for KDIK - April, 2013

Change the Weather History Date:

Sunday, April 7, 2013

  Actual Average Record
Temperature  
Mean Temperature 47 °F 39 °F  
Max Temperature 61 °F 52 °F 82 °F (1988)
Min Temperature 32 °F 26 °F 0 °F (1942)
Degree Days  
Heating Degree Days 18 26  
Month to date heating degree days 181 191  
Since 1 July heating degree days 7365 7571  
Cooling Degree Days 0 0  
Month to date cooling degree days 0 0  
Year to date cooling degree days 0 0  
Moisture  
Dew Point 31 °F    
Average Humidity 65    
Maximum Humidity 100    
Minimum Humidity 30    
Precipitation  
Precipitation T in 0.04 in 0.78 in (1908)
Month to date precipitation T 0.26  
Year to date precipitation 0.43 1.58  
Sea Level Pressure  
Sea Level Pressure 29.70 in    
Wind  
Wind Speed 11 mph (ESE)    
Max Wind Speed 18 mph    
Max Gust Speed 23 mph    
Visibility 7 miles    
Events Fog    
T = Trace of Precipitation, MM = Missing Value Source: NWS Daily Summary

Daily Weather History Graph

Daily Weather History Graph

Search for Another Location

Airport or City:

Trip Planner

Search our weather history database for the weather conditions in past years. The results will help you decide how hot, cold, wet, or windy it might be!

Date:

Astronomy

Apr. 07, 2013 Rise Set
Actual Time 6:18 AM MDT 7:29 PM MDT
Civil Twilight 5:47 AM MDT 8:00 PM MDT
Nautical Twilight 5:09 AM MDT 8:37 PM MDT
Astronomical Twilight 4:30 AM MDT 9:17 PM MDT
Moon 4:46 AM MDT (4/7) 4:56 PM MDT (4/7)
Length of Visible Light 14h 13m
Length of Day
13h 10m
Waning Crescent, 8% of the Moon is Illuminated
Apr 7
Waning Crescent
Apr 10
New
Apr 18
First Quarter
Apr 25
Full
May 2
Last Quarter

Hourly Weather History & Observations

Time (MDT) Temp. Windchill Dew Point Humidity Pressure Visibility Wind Dir Wind Speed Gust Speed Precip Events Conditions
12:56 AM 32.0 °F 23.0 °F 30.0 °F 92% 29.83 in 6.0 mi SSE 11.5 mph - 0.00 in   Overcast
1:21 AM 33.8 °F 26.4 °F 30.2 °F 87% 29.78 in 6.0 mi SE 9.2 mph - N/A   Overcast
1:48 AM 33.8 °F 26.4 °F 30.2 °F 87% 29.77 in 7.0 mi SE 9.2 mph - N/A   Overcast
1:56 AM 33.1 °F 26.1 °F 30.0 °F 89% 29.81 in 7.0 mi ESE 8.1 mph - N/A   Overcast
2:56 AM 32.0 °F 23.6 °F 30.0 °F 92% 29.79 in 7.0 mi SE 10.4 mph - N/A   Overcast
3:04 AM 33.8 °F 27.0 °F 30.2 °F 87% 29.75 in 7.0 mi SE 8.1 mph - N/A   Overcast
3:56 AM 33.1 °F 26.1 °F 30.0 °F 89% 29.78 in 6.0 mi SE 8.1 mph - N/A   Overcast
4:56 AM 32.0 °F 23.0 °F 30.0 °F 92% 29.78 in 6.0 mi SSE 11.5 mph - N/A   Overcast
6:56 AM 33.1 °F 23.4 °F 30.9 °F 92% 29.77 in 4.0 mi SSE 13.8 mph - 0.00 in   Overcast
7:56 AM 34.0 °F 26.0 °F 32.0 °F 92% 29.78 in 5.0 mi SSE 10.4 mph - N/A   Overcast
8:56 AM 35.1 °F 25.5 °F 32.0 °F 89% 29.75 in 6.0 mi SSE 15.0 mph - N/A   Overcast
9:56 AM 37.9 °F 29.2 °F 33.1 °F 83% 29.73 in 10.0 mi SSE 15.0 mph - N/A   Overcast
10:26 AM 42.8 °F 35.1 °F 33.8 °F 70% 29.66 in 10.0 mi SSE 16.1 mph 23.0 mph N/A   Overcast
10:43 AM 42.8 °F 35.8 °F 33.8 °F 70% 29.65 in 10.0 mi South 13.8 mph - N/A   Scattered Clouds
10:56 AM 46.0 °F 39.6 °F 35.1 °F 66% 29.70 in 10.0 mi South 15.0 mph - N/A   Partly Cloudy
11:56 AM 51.1 °F - 37.0 °F 59% 29.66 in 10.0 mi South 11.5 mph 20.7 mph N/A   Clear
12:56 PM 55.9 °F - 37.0 °F 49% 29.63 in 10.0 mi Variable 3.5 mph - N/A   Mostly Cloudy
1:56 PM 59.0 °F - 34.0 °F 39% 29.62 in 10.0 mi NW 11.5 mph 17.3 mph N/A   Clear
2:56 PM 59.0 °F - 30.9 °F 35% 29.61 in 10.0 mi WNW 12.7 mph - N/A   Partly Cloudy
3:56 PM 57.9 °F - 27.0 °F 31% 29.61 in 10.0 mi NW 11.5 mph - N/A   Overcast
4:56 PM 57.0 °F - 26.1 °F 30% 29.62 in 10.0 mi NNW 8.1 mph 17.3 mph N/A   Mostly Cloudy
5:56 PM 55.9 °F - 27.0 °F 33% 29.62 in 10.0 mi NNW 8.1 mph - N/A   Clear
6:56 PM 54.0 °F - 30.0 °F 40% 29.62 in 10.0 mi North 4.6 mph - N/A   Clear
7:56 PM 46.9 °F - 28.9 °F 50% 29.63 in 10.0 mi NE 5.8 mph - N/A   Partly Cloudy
8:56 PM 43.0 °F 38.2 °F 28.9 °F 58% 29.66 in 10.0 mi East 8.1 mph - N/A   Clear
9:56 PM 42.1 °F 38.4 °F 33.1 °F 70% 29.69 in 10.0 mi Variable 5.8 mph - N/A   Clear
10:56 PM 35.1 °F 26.9 °F 32.0 °F 89% 29.69 in 8.0 mi North 11.5 mph - N/A   Scattered Clouds
11:24 PM 33.8 °F 24.3 °F 32.0 °F 93% 29.65 in 5.0 mi NNE 13.8 mph - N/A   Mostly Cloudy
11:28 PM 33.8 °F 24.3 °F 32.0 °F 93% 29.65 in 2.5 mi NNE 13.8 mph - N/A   Overcast
11:37 PM 33.8 °F 24.8 °F 33.8 °F 100% 29.66 in 1.2 mi North 12.7 mph - N/A   Overcast
11:47 PM 33.8 °F 24.8 °F 33.8 °F 100% 29.66 in 0.5 mi NNE 12.7 mph - N/A Fog Fog
11:56 PM 34.0 °F 25.0 °F 33.1 °F 96% 29.70 in 0.5 mi NNE 12.7 mph - N/A Fog Fog